Tracking 30743 objects as of 21-Jun-2025
HD Live streaming from Space Station
objects crossing your sky now

NOAA 16 DEB

Track NOAA 16 DEB now!
10-day predictions


NORAD ID: 42368
Int'l Code: 2000-055RL
Perigee: 803.9 km
Apogee: 820.8 km
Inclination: 98.7 °
Period: 101.0 minutes
Semi major axis: 7183 km
RCS: Unknown
Launch date: September 21, 2000
Source: United States (US)
Launch site: AIR FORCE WESTERN TEST RANGE (AFWTR)

Note: This is SATELLITE DEBRIS
Your satellite tracking list
Your tracking list is empty




NASA's NSSDC Master Catalog

Two Line Element Set (TLE):
1 42368U 00055RL  25169.43940592  .00003190  00000-0  13549-2 0  9999
2 42368  98.7365 246.8284 0011751  57.5074 302.7239 14.25972387475358
Source of the keplerian elements: AFSPC